Flag for U.S.A. Weather past 2 weeks in Rockford, Illinois, U.S.A.

Now
32 °F

Overcast.


Feels Like: 26 °F
Forecast: 31 / 38 °F
Wind: 7 mph from South

Location: Greater Rockford Airport

Current Time: Dec 21, 2014 at 5:38:39 AM

Latest Report: Dec 21, 2014 at 4:54 AM


Visibility: 7 mi

Pressure: 30.21 "Hg

Humidity: 88%

Dew point: 29 °F

Location of RockfordLocation

Historic Weather in Rockford — Graph

°F

Rockford temperature yesterday

Maximum temperature yesterday: 32 °F (at 10:54 PM)
Minimum temperature yesterday: 24 °F (at 12:54 AM)
Average temperature yesterday: 29 °F

Past Weeks' High & Low Weather Summary

 TemperatureHumidityPressure
High47 °F (Dec 14, 1:54 PM)97% (Dec 8, 1:54 PM)30.71 "Hg (Dec 8, 1:54 PM)
Low18 °F (Dec 18, 6:54 AM)55% (Dec 6, 1:54 PM)29.66 "Hg (Dec 16, 12:54 AM)
Average32 °F82%30.26 "Hg
* Reported Dec 6 3:54 AM — Dec 21 3:54 AM, Rockford, Weather by CustomWeather, © 2014

Note: Actual official high and low records may vary slightly from our data, if they occured in-between our weather recording intervals... More about our weather records

Advertising

Rockford weather history for previous 24 hours

 ConditionsComfort  
Time TempWeatherWind HumidityBarometerVisibility
3:54 AM
Dec 21
32 °FIce fog.6 mph88%30.22 "Hg6 mi
2:54 AM32 °FIce fog.7 mph85%30.24 "Hg6 mi
1:54 AM32 °FMostly cloudy.7 mph85%30.25 "Hg7 mi
12:54 AM32 °FDrizzle. Overcast.8 mph85%30.24 "Hg7 mi
11:54 PM
Dec 20
32 °FLight snow. Ice fog.8 mph85%30.25 "Hg3 mi
10:54 PM32 °FOvercast.7 mph82%30.27 "Hg9 mi
9:54 PM31 °FOvercast.7 mph82%30.26 "Hg8 mi
8:54 PM31 °FOvercast.5 mph82%30.28 "Hg7 mi
7:54 PM31 °FOvercast.7 mph82%30.27 "Hg8 mi
6:54 PM31 °FOvercast.7 mph82%30.29 "Hg7 mi
5:54 PM31 °FOvercast.6 mph79%30.29 "Hg8 mi
4:54 PM31 °FOvercast.6 mph79%30.28 "Hg8 mi
3:54 PM31 °FOvercast.5 mph76%30.27 "Hg7 mi
2:54 PM31 °FOvercast.6 mph76%30.27 "Hg7 mi
1:54 PM31 °FLight snow. More clouds than sun.6 mph76%30.27 "Hg6 mi
12:54 PM30 °FLight snow. Ice fog.9 mph85%30.29 "Hg4 mi
11:54 AM30 °FLight snow. Ice fog.6 mph85%30.30 "Hg5 mi
10:54 AM29 °FLight snow. Ice fog.5 mph85%30.32 "Hg5 mi
9:54 AM28 °FIce fog.5 mph85%30.32 "Hg5 mi
8:54 AM28 °FIce fog.3 mph85%30.31 "Hg6 mi
7:54 AM27 °FOvercast.3 mph81%30.31 "Hg7 mi
6:54 AM27 °FLight snow. Overcast.No wind81%30.32 "Hg8 mi
5:54 AM27 °FOvercast.No wind81%30.31 "Hg8 mi
Weather by CustomWeather, © 2014

See weather overviewHow to use our weather pages